Weather observations for the past three days for
Martinsville
Imperial (Metric)
Date Time (edt) Wind (mph) Vis. (mi.) Weather Sky Cond. Temperature (ºF) Relative Humidity Wind Chill (°F) Heat Index (°F) Pressure Precipitation (in)
Air Dwpt 6 hour altimeter (in) sea level (mb) 1 hr 3 hr 6 hr
Max. Min.
12 20:15 NE 3 10.00 Overcast BKN013 OVC020 73.4 69.1 86% 30.19 0.0
12 19:55 NE 3 10.00 Partly Cloudy SCT011 SCT014 73.8 68.7 80.6 72.1 84% 30.18 0.0 0.01
12 19:35 NE 3 10.00 Partly Cloudy SCT095 74.5 68.9 83% 30.17 0.0
12 19:15 NE 3 10.00 Overcast OVC095 74.3 69.1 84% 30.17 0.0
12 18:55 NE 6 10.00 Mostly Cloudy BKN095 74.3 68.4 82% 30.17 0.0
12 18:35 E 7 10.00 Mostly Cloudy SCT018 SCT095 BKN120 75 68.2 79% 76 30.17 0.0
12 18:15 NE 5 10.00 Overcast SCT040 BKN095 OVC120 73.2 69.3 87% 30.17 0.0
12 17:55 NE 5 7.00 Drizzle SCT025 SCT036 OVC042 72.1 68.5 89% 30.17 0.0 0.01
12 17:35 E 6 7.00 Drizzle SCT032 OVC040 72.7 68 85% 30.17 0.0
12 17:15 E 6 10.00 Light Drizzle BKN024 BKN032 OVC038 74.7 68.5 81% 30.17 0.0
12 16:55 E 8 10.00 Overcast BKN026 BKN032 OVC040 78.3 67.3 69% 80 30.17 0.0
12 16:35 N 3 10.00 Overcast SCT034 BKN042 OVC049 79 66.9 67% 81 30.16 0.0
12 16:15 NE 6 10.00 Overcast BKN041 OVC049 79.9 66.6 64% 82 30.16 0.0
12 15:55 N 6 10.00 Overcast SCT033 OVC039 79.7 66.6 64% 82 30.16 0.0
12 15:35 NE 6 10.00 Overcast SCT027 OVC035 79.5 66.4 64% 82 30.17 0.0
12 15:15 NE 7 10.00 Overcast BKN028 OVC033 79.7 66.2 63% 82 30.17 0.0
12 14:55 N 10 10.00 Overcast SCT025 BKN033 OVC095 80.6 66.2 62% 83 30.17 0.0
12 14:35 NE 7 10.00 Overcast SCT024 SCT028 OVC036 79.7 66.6 64% 82 30.17 0.0
12 14:15 NE 9 10.00 Overcast SCT024 OVC033 79.2 66 64% 81 30.17 0.0
12 13:55 E 8 10.00 Overcast BKN026 OVC034 78.8 65.8 80.6 71.6 65% 81 30.18 0.0
12 13:35 E 6 10.00 Overcast BKN026 OVC032 79 65.3 63% 81 30.18 0.0
12 13:15 NE 7 10.00 Overcast BKN026 OVC032 80.2 64.9 60% 82 30.18 0.0
12 12:55 NE 13 G 18 10.00 Overcast BKN024 OVC030 79.5 65.1 62% 81 30.18 0.0
12 12:35 NE 9 10.00 Overcast OVC028 78.4 65.7 65% 80 30.19 0.0
12 12:15 NE 10 10.00 Overcast SCT018 OVC026 77.5 66.4 69% 79 30.19 0.0
12 11:55 NE 9 G 18 10.00 Overcast SCT018 OVC026 76.3 66.2 71% 78 30.2 0.0
12 11:35 NE 10 10.00 Overcast SCT017 BKN026 OVC041 75.6 66.7 74% 77 30.2 0.0
12 11:15 NE 8 10.00 Overcast SCT017 SCT021 OVC026 74.7 67.6 79% 30.2 0.0
12 10:55 NE 6 10.00 Overcast BKN017 OVC028 73.9 67.8 81% 30.2 0.0
12 10:35 NE 7 10.00 Overcast OVC015 73.6 67.5 81% 30.2 0.0
12 09:55 NE 6 10.00 Overcast BKN014 BKN018 OVC055 73.9 68.9 84% 30.18 0.0
12 09:35 NE 6 10.00 Overcast SCT010 OVC055 73.9 69.3 85% 30.18 0.0
12 09:15 NE 7 10.00 Overcast SCT014 BKN055 OVC110 73.4 69.4 87% 30.17 0.0
12 08:55 N 3 10.00 Light Drizzle SCT016 BKN095 OVC120 72.5 69.1 89% 30.16 0.0
12 08:35 Calm 10.00 Light Drizzle OVC085 71.6 68.4 90% 30.16 0.0
12 08:15 N 7 7.00 Rain SCT024 SCT038 OVC085 72 68 87% 30.14 0.0
12 07:55 N 7 10.00 Light Drizzle SCT026 BKN035 OVC085 72.5 67.5 72.7 66 84% 30.15 0.0
12 07:35 NE 6 10.00 Overcast BKN031 BKN045 OVC120 72.5 67.1 83% 30.15 0.0
12 07:15 NE 5 10.00 Mostly Cloudy SCT029 SCT034 BKN090 72.1 66.6 83% 30.15 0.0
12 06:55 N 6 10.00 Overcast SCT031 BKN090 OVC120 71.6 65.7 82% 30.14 0.0
12 06:35 N 5 10.00 Overcast SCT016 BKN075 OVC095 71.6 65.3 81% 30.14 0.0
12 06:15 N 3 10.00 Overcast SCT014 SCT030 OVC075 71.6 64.8 79% 30.13 0.0
12 05:55 N 3 10.00 Overcast OVC012 71.6 64.8 79% 30.12 0.0
12 05:35 Calm 10.00 Light Rain BKN014 OVC032 70.2 64.8 83% 30.13 0.0
12 05:15 Calm 3.00 Overcast with Haze BKN030 BKN042 OVC070 71.1 64.2 79% 30.13 0.0
12 04:55 Calm 1.75 Overcast with Haze BKN040 OVC075 71.2 63.5 77% 30.12 0.0
12 04:35 Calm 1.50 Overcast with Haze SCT024 SCT037 OVC085 70.7 63.7 79% 30.11 0.0
12 04:15 N 3 1.00 Overcast with Haze SCT017 BKN029 OVC085 70.7 63.7 79% 30.1 0.0
12 03:55 Calm 10.00 Overcast SCT017 BKN029 OVC075 68 64.4 88% 30.1 0.0
12 03:35 Calm 7.00 Overcast BKN017 BKN027 OVC075 68.4 65.3 90% 30.1 0.0
12 03:15 Calm 10.00 Mostly Cloudy BKN075 BKN100 66.2 63.5 91% 30.1 0.0
12 02:55 Calm 10.00 Partly Cloudy SCT075 66.2 63.3 91% 30.09 0.0
12 02:35 Calm 10.00 Partly Cloudy SCT075 SCT100 66.2 63.3 91% 30.09 0.0
12 02:15 Calm 10.00 Partly Cloudy SCT075 SCT100 66.4 63.5 91% 30.1 0.0
12 01:55 Calm 10.00 Fair CLR 66.2 63.5 85.5 65.8 91% 30.1 0.0
12 01:35 Calm 10.00 Fair CLR 66.6 63.3 89% 30.1 0.0
12 01:15 Calm 10.00 Fair CLR 66.4 63.3 90% 30.1 0.0
12 00:55 Calm 10.00 Fair CLR 67.1 63.3 88% 30.1 0.0
12 00:35 NW 3 10.00 Fair CLR 67.1 63.5 88% 30.1 0.0
12 00:15 Calm 10.00 Fair CLR 67.3 63 86% 30.1 0.0
11 23:55 Calm 10.00 Fair CLR 67.1 63.3 88% 30.09 0.0
11 23:35 Calm 10.00 Fair CLR 69.6 64.4 84% 30.09 0.0
11 23:15 Calm 10.00 Fair CLR 68.7 63.7 84% 30.09 0.0
11 22:55 Calm 10.00 Fair CLR 70.3 63.3 79% 30.08 0.0
11 22:35 Calm 10.00 Fair CLR 70.2 62.6 77% 30.08 0.0
11 22:15 Calm 10.00 Fair CLR 71.4 63 75% 30.08 0.0
11 21:55 Calm 10.00 Fair CLR 72.3 62.8 72% 30.07 0.0
11 21:35 Calm 10.00 Fair CLR 73.4 63.1 70% 30.07 0.0
11 21:15 Calm 10.00 Fair CLR 75.2 62.4 65% 77 30.07 0.0
11 20:55 Calm 10.00 Fair CLR 76.8 62.6 62% 79 30.07 0.0
11 20:35 Calm 10.00 Fair CLR 79.7 61.3 54% 81 30.06 0.0
11 20:15 Calm 10.00 Fair CLR 81.7 61.9 51% 83 30.06 0.0
11 19:55 Calm 10.00 Fair CLR 85.8 57.9 90.5 85.1 39% 85 30.05 0.0
11 19:35 E 3 10.00 Fair CLR 87.1 56.3 35% 86 30.05 0.0
11 19:15 E 5 10.00 Fair CLR 87.4 55 33% 86 30.05 0.0
11 18:55 NE 6 10.00 Fair CLR 88 53.4 31% 86 30.04 0.0
11 18:35 NE 5 10.00 Fair CLR 88.7 53.1 30% 86 30.04 0.0
11 18:15 NE 5 10.00 Fair CLR 88.9 53.6 30% 87 30.04 0.0
11 17:55 Calm 10.00 Fair CLR 89.8 52.9 28% 87 30.04 0.0
11 17:35 N 6 10.00 Fair CLR 89.1 53.6 30% 87 30.04 0.0
11 17:15 Calm 10.00 Partly Cloudy SCT065 89.1 53.2 29% 87 30.04 0.0
11 16:55 SE 3 10.00 Fair CLR 89.1 53.2 29% 87 30.04 0.0
11 16:35 NE 5 10.00 Fair CLR 89.4 52.7 29% 87 30.04 0.0
11 16:15 Calm 10.00 Fair CLR 88.7 53.2 30% 86 30.04 0.0
11 15:55 N 6 10.00 Fair CLR 88.5 52 29% 86 30.03 0.0
11 15:35 Calm 10.00 Fair CLR 88.2 53.1 30% 86 30.04 0.0
11 15:15 NW 6 10.00 Fair CLR 88 52.9 30% 86 30.04 0.0
11 14:55 N 8 10.00 Fair CLR 87.4 52.5 30% 85 30.05 0.0
11 14:35 NE 7 10.00 Fair CLR 87.6 52.7 30% 85 30.05 0.0
11 14:15 E 6 10.00 Fair CLR 86.4 54.5 34% 85 30.06 0.0
11 13:55 NE 7 10.00 Fair CLR 86.9 54.3 87.1 71.6 33% 85 30.06 0.0
11 13:35 NE 8 10.00 Fair CLR 85.8 54.1 34% 84 30.07 0.0
11 13:15 E 10 10.00 Fair CLR 85.5 54.3 34% 84 30.07 0.0
11 12:55 N 7 10.00 Fair CLR 83.8 54.3 36% 83 30.07 0.0
11 12:35 N 8 10.00 Fair CLR 84.2 54.9 37% 83 30.08 0.0
11 12:15 NE 8 10.00 Fair CLR 83.1 54.3 37% 82 30.08 0.0
11 11:55 N 7 10.00 Fair CLR 82.4 54.5 38% 82 30.08 0.0
11 11:35 NW 5 G 9 10.00 Fair CLR 81.1 54.7 40% 81 30.08 0.0
11 11:15 NE 7 10.00 Fair CLR 80.4 54.5 41% 80 30.08 0.0
11 10:55 N 9 10.00 Fair CLR 80.6 54.5 41% 80 30.09 0.0
11 10:35 NE 9 10.00 Fair CLR 80.2 54.5 41% 80 30.08 0.0
11 10:15 N 10 10.00 Fair CLR 79.2 54.7 43% 80 30.09 0.0
11 09:55 NE 10 10.00 Fair CLR 78.4 55 45% 79 30.08 0.0
11 09:35 N 7 G 17 10.00 Fair CLR 77.4 55 46% 79 30.08 0.0
11 09:15 N 10 G 17 10.00 Fair CLR 76.1 55 48% 78 30.08 0.0
11 08:55 N 14 10.00 Fair CLR 75.2 55.8 51% 78 30.07 0.0
11 08:35 N 10 10.00 Fair CLR 73.9 56.1 54% 30.07 0.0
11 08:15 N 10 10.00 Fair CLR 73 56.5 56% 30.06 0.0
11 07:55 N 7 10.00 Fair CLR 71.6 56.8 72.9 61.5 60% 30.06 0.0
11 07:35 N 5 10.00 Fair CLR 70.3 56.8 62% 30.05 0.0
11 07:15 N 5 10.00 Fair CLR 69.1 57 66% 30.05 0.0
11 06:55 N 3 10.00 Fair CLR 67.5 57 69% 30.04 0.0
11 06:35 N 3 10.00 Fair CLR 63 56.5 80% 30.04 0.0
11 06:15 Calm 10.00 Fair CLR 61.5 56.7 84% 30.03 0.0
11 05:55 Calm 10.00 Fair CLR 62.1 56.8 83% 30.02 0.0
11 05:35 Calm 10.00 Fair CLR 63.3 56.3 78% 30.02 0.0
11 05:15 Calm 10.00 Fair CLR 63.7 57 79% 30.01 0.0
11 04:55 Calm 10.00 Fair CLR 64 57.4 79% 30.01 0.0
11 04:35 Calm 10.00 Fair CLR 65.8 55.9 71% 30 0.0
11 04:15 Calm 10.00 Fair CLR 66.9 56.3 69% 30 0.0
11 03:55 Calm 10.00 Fair CLR 68.2 55.6 64% 29.99 0.0
11 03:35 Calm 10.00 Fair CLR 69.3 55.4 62% 29.98 0.0
11 03:15 NW 5 10.00 Fair CLR 71.1 55.6 58% 29.98 0.0
11 02:35 N 7 10.00 Fair CLR 72.5 55.6 55% 29.97 0.0
11 02:15 NW 9 10.00 Fair CLR 72.9 55.9 55% 29.98 0.0
11 01:35 NW 10 10.00 Fair CLR 73.4 56.3 55% 29.97 0.0
11 01:15 NW 9 G 17 10.00 Fair CLR 73.8 56.3 55% 29.97 0.0
11 00:55 N 5 10.00 Fair CLR 73.8 56.3 55% 29.97 0.0
11 00:35 NW 5 10.00 Fair CLR 72.3 56.8 58% 29.97 0.0
11 00:15 NW 6 10.00 Fair CLR 75.2 56.1 52% 78 29.97 0.0
10 23:55 N 6 10.00 Fair CLR 75.9 56.5 51% 78 29.97 0.0
10 23:35 NW 9 10.00 Fair CLR 75.7 57 52% 78 29.96 0.0
10 23:15 NW 9 10.00 Fair CLR 77.5 57 49% 79 29.97 0.0
10 22:55 NW 10 G 18 10.00 Partly Cloudy SCT065 78.1 57.7 50% 79 29.96 0.0
10 22:35 NW 6 10.00 Partly Cloudy SCT065 77.9 59.2 53% 79 29.95 0.0
10 22:15 NW 6 10.00 Fair CLR 78.3 59.4 52% 80 29.93 0.0
10 21:55 NW 6 10.00 Fair CLR 77.2 59.9 55% 79 29.92 0.0
10 21:35 NW 6 10.00 Partly Cloudy SCT070 SCT080 80.2 59 48% 81 29.91 0.0
10 21:15 NW 7 10.00 Mostly Cloudy BKN070 BKN080 81.7 59 46% 82 29.9 0.0
10 20:55 NW 9 10.00 Mostly Cloudy BKN070 BKN080 82.6 58.5 44% 82 29.9 0.0
10 20:35 NW 9 10.00 Overcast OVC060 83.8 58.1 42% 83 29.9 0.0
10 20:15 W 5 10.00 Overcast OVC060 84.9 59.2 42% 85 29.9 0.0
10 19:55 NW 10 10.00 Overcast BKN060 OVC095 85.3 59.5 95.9 85.1 42% 85 29.89 0.0
10 19:35 NW 7 10.00 Overcast OVC060 85.3 59.9 42% 85 29.88 0.0
10 19:15 W 6 10.00 Overcast BKN060 OVC070 85.6 60.1 42% 85 29.88 0.0
10 18:55 W 5 10.00 Overcast BKN060 OVC085 86.9 59.9 40% 87 29.87 0.0
10 18:35 W 7 10.00 Overcast BKN060 BKN080 OVC100 88.3 60.3 39% 88 29.87 0.0
10 18:15 W 6 10.00 Overcast OVC060 88.7 62.8 42% 89 29.86 0.0
10 17:55 W 8 10.00 Overcast BKN060 OVC080 89.1 63.7 43% 90 29.86 0.0
10 17:35 W 7 10.00 Overcast BKN060 OVC090 90.7 64.2 42% 92 29.85 0.0
10 17:15 W 6 10.00 Overcast SCT060 OVC090 91.8 64 40% 93 29.85 0.0
10 16:55 NW 12 10.00 Mostly Cloudy BKN060 BKN100 93.6 64.4 38% 96 29.84 0.0
10 16:35 W 6 10.00 Overcast BKN060 BKN070 OVC100 91 66 44% 94 29.84 0.0
10 16:15 SW 7 10.00 Mostly Cloudy SCT055 BKN070 BKN080 92.7 64.8 40% 95 29.85 0.0
10 15:55 W 10 10.00 Partly Cloudy SCT055 SCT100 95.2 64.6 36% 98 29.85 0.0
10 15:35 W 7 10.00 Partly Cloudy SCT060 SCT070 95.9 63.9 35% 98 29.85 0.0
10 15:15 SW 8 10.00 Partly Cloudy SCT065 SCT070 93.4 64.6 39% 95 29.85 0.0
10 14:55 W 12 G 17 10.00 Fair CLR 95.2 64.2 36% 97 29.85 0.0
10 14:35 SW 10 10.00 Fair CLR 94.1 66 40% 97 29.86 0.0
10 14:15 W 9 10.00 Fair CLR 94.5 66.7 40% 98 29.86 0.0
10 13:55 SW 9 10.00 Partly Cloudy SCT042 SCT060 SCT090 93.2 67.1 93.4 76.8 42% 97 29.87 0.0
10 13:35 W 9 10.00 Mostly Cloudy SCT042 BKN060 92.5 69.4 47% 98 29.87 0.0
10 12:55 W 10 10.00 Mostly Cloudy BKN042 BKN050 90.9 69.8 50% 96 29.88 0.0
10 12:35 SW 6 10.00 Partly Cloudy SCT042 SCT048 91.2 69.1 48% 96 29.88 0.0
10 12:15 SW 5 10.00 Partly Cloudy SCT036 SCT046 SCT055 90.7 69.6 50% 96 29.89 0.0
10 11:55 SW 6 10.00 Mostly Cloudy SCT031 BKN037 BKN046 88.7 70.3 55% 94 29.9 0.0
10 11:35 SW 3 10.00 Partly Cloudy SCT029 SCT034 88.2 71.4 58% 94 29.9 0.0
10 11:15 S 6 10.00 Partly Cloudy SCT027 87.3 71.8 60% 94 29.9 0.0
10 10:55 S 6 10.00 Partly Cloudy SCT021 SCT027 86.2 72.3 63% 93 29.9 0.0
10 10:35 SW 5 10.00 Mostly Cloudy SCT002 BKN019 84.4 72 66% 90 29.9 0.0
10 10:15 S 5 10.00 Mostly Cloudy SCT002 BKN017 82.8 72 70% 88 29.91 0.0
10 09:55 S 5 10.00 Mostly Cloudy BKN013 80.8 72.5 76% 85 29.91 0.0
10 09:35 S 7 4.00 Overcast with Haze OVC015 81 72.9 76% 86 29.92 0.0
10 09:15 Calm 10.00 Overcast OVC013 79.5 73.6 82% 83 29.91 0.0
10 08:55 S 5 10.00 Overcast SCT008 OVC015 78.4 73.6 85% 81 29.91 0.0
10 08:35 Calm 10.00 Overcast OVC008 77.7 73.6 87% 80 29.92 0.0
10 08:15 S 3 10.00 Overcast OVC008 77.2 73.6 89% 79 29.92 0.0
10 07:55 SE 5 10.00 Overcast OVC008 77 73.6 78.1 73.9 89% 78 29.92 0.0
10 07:35 S 3 10.00 Overcast OVC008 76.6 73.6 90% 77 29.92 0.0
10 07:15 S 3 10.00 Overcast OVC008 76.1 73.4 91% 76 29.92 0.0
10 06:55 Calm 10.00 Overcast OVC008 75.4 72.9 92% 75 29.92 0.0
10 06:35 Calm 7.00 Overcast OVC008 74.5 71.8 91% 29.92 0.0
10 06:15 Calm 10.00 Overcast BKN008 OVC012 74.1 71.6 92% 29.92 0.0
10 05:55 Calm 10.00 Mostly Cloudy BKN008 BKN013 74.5 71.8 91% 29.92 0.0
10 05:35 Calm 10.00 Partly Cloudy SCT010 74.5 71.8 91% 29.91 0.0
10 05:15 Calm 10.00 Mostly Cloudy BKN010 74.5 71.8 91% 29.91 0.0
10 04:55 Calm 10.00 Overcast BKN010 OVC041 75.2 72.5 91% 74 29.92 0.0
10 04:35 Calm 10.00 Mostly Cloudy SCT010 SCT041 BKN049 74.3 71.6 91% 29.91 0.0
10 04:15 Calm 10.00 Partly Cloudy SCT050 SCT055 74.3 71.8 92% 29.91 0.0
10 03:55 Calm 10.00 Overcast BKN046 OVC050 74.5 71.8 91% 29.92 0.0
10 03:35 Calm 10.00 Partly Cloudy SCT045 74.3 71.6 91% 29.92 0.0
10 03:15 Calm 10.00 Fair CLR 74.8 71.8 90% 29.92 0.0
10 02:55 Calm 10.00 Partly Cloudy SCT046 76.3 71.8 86% 77 29.92 0.0
10 02:35 Calm 10.00 Partly Cloudy SCT046 77 72 85% 78 29.93 0.0
10 02:15 Calm 10.00 Fair CLR 77.7 72 83% 80 29.93 0.0
10 01:55 Calm 10.00 Fair CLR 78.3 72 86.9 77.9 81% 81 29.93 0.0
10 01:35 S 3 10.00 Fair CLR 78.4 71.8 80% 81 29.93 0.0
10 01:15 S 3 10.00 Fair CLR 79 72 79% 82 29.95 0.0
10 00:35 S 5 10.00 Fair CLR 79.9 72 77% 84 29.95 0.0
10 00:15 S 3 10.00 Fair CLR 79.9 72.1 77% 84 29.95 0.0
09 23:55 Calm 10.00 Fair CLR 80.1 72.5 78% 84 29.96 0.0
09 23:35 Calm 10.00 Fair CLR 78.3 73.4 85% 81 29.96 0.0
09 23:15 Calm 10.00 Fair CLR 78.6 73.4 84% 82 29.96 0.0
09 22:55 Calm 10.00 Fair CLR 78.8 73.6 84% 82 29.97 0.0
09 22:35 Calm 10.00 Fair CLR 80.1 73.4 80% 84 29.97 0.0
09 22:15 Calm 10.00 Fair CLR 80.6 73 78% 85 29.97 0.0
09 21:55 Calm 10.00 Partly Cloudy SCT080 82.6 72.1 71% 88 29.97 0.0
09 21:35 SW 3 10.00 Fair CLR 82.8 72.5 71% 88 29.97 0.0
09 21:15 Calm 10.00 Fair CLR 81.9 73.2 75% 87 29.97 0.0
09 20:55 Calm 10.00 Fair CLR 83.8 72.5 69% 90 29.97 0.0
09 20:35 SW 3 10.00 Fair CLR 83.7 72.5 69% 90 29.97 0.0
Date Time (edt) Wind (mph) Vis. (mi.) Weather Sky Cond. Air Dwpt Max. Min. Relative Humidity Wind Chill (°F) Heat Index (°F) altimeter (in) sea level (mb) 1 hr 3 hr 6 hr
6 hour
Temperature (ºF) Pressure Precipitation (in)